Regional Weather Roundup
Issued by NWS

Home | Current Version | Previous Version | Graphics & Text | Print | Product List | Glossary On
Versions: 1 2 3 4 5 6 7 8 9 10 11 12 13 14 15 16 17 18 19 20 21 22 23 24 25 26 27 28
000
ASUS45 KTFX 232210
RWRMT
MONTANA REGIONAL WEATHER ROUNDUP
NATIONAL WEATHER SERVICE GREAT FALLS MT
300 PM MST THU FEB 23 2017

NOTE: "FAIR" INDICATES FEW OR NO CLOUDS BELOW 12000 FEET WITH NO
SIGNIFICANT WEATHER AND/OR OBSTRUCTIONS TO VISIBILITY.

MTZ001>007-043-232300-
WEST OF THE DIVIDE

CITY           SKY/WX    TMP DP  RH WIND       PRES   REMARKS
KALISPELL      CLOUDY    37  20  50 CALM      29.94S
MISSOULA       PTSUNNY   36  23  59 N9        29.93S WCI  29
BUTTE          CLOUDY    28  15  58 VRB5      29.79F
MULLAN PASS    PTSUNNY   23  20  88 VRB3      29.85S
ANACONDA         N/A     30  12  47 N13G21    29.83R WCI  20
DEER LODGE       N/A     30  16  55 NE14      29.88R WCI  20
EUREKA           N/A     30  21  69 E5        29.99F
HAMILTON         N/A     37  18  44 N13       29.87S WCI  29
LIBBY            N/A     37  18  44 E3        29.98S
$$

MTZ008-052>055-232300-
SOUTHWEST MONTANA

CITY           SKY/WX    TMP DP  RH WIND       PRES   REMARKS
BOZEMAN        CLOUDY    34  18  52 E12       29.83S WCI  25
DILLON         CLOUDY    31  15  52 N21G26    29.75S WCI  18
W YELLOWSTONE  CLOUDY    25  10  54 NE12      29.70R WCI  14
ENNIS          MOSUNNY   32  12  43 NE14      29.78F WCI  22
$$

MTZ009-010-012-014-046-048-049-054-232300-
EAST SLOPES AND CENTRAL MONTANA

CITY           SKY/WX    TMP DP  RH WIND       PRES   REMARKS
CUT BANK       CLOUDY    24  18  77 E3        29.96F
GREAT FALLS    CLOUDY    26  20  77 N7        29.97S WCI  18
MALMSTROM AFB  CLOUDY    27  24  87 N10       29.99R WCI  17
HELENA         MOSUNNY   32  21  64 N14       29.90R WCI  22
CHOTEAU          N/A     25  21  86 NE6       30.00R WCI  18
$$

MTZ011-013-016-021-045-047-050-051-232300-
NORTH CENTRAL MONTANA

CITY           SKY/WX    TMP DP  RH WIND       PRES   REMARKS
HAVRE          CLOUDY    28  23  81 E12       30.05R WCI  18
LEWISTOWN      FLURRIES  24  19  81 E7        29.95R WCI  16
N BAR RANCH    CLOUDY    23  18  80 SE6       29.96S WCI  16
CHINOOK          N/A     28  21  74 E8        30.07R WCI  20
FORT BENTON      N/A     28  23  80 MISG      30.03
$$

MTZ017>020-022>027-061-062-232300-
NORTHEAST MONTANA

CITY           SKY/WX    TMP DP  RH WIND       PRES   REMARKS
GLASGOW        CLOUDY    28  22  78 E12       30.07R WCI  18
JORDAN           N/A     32  24  72 E6        30.02  WCI  26
SIDNEY         FLURRIES  29  25  85 NE8       30.08R WCI  21
WOLF POINT     CLOUDY    29  21  72 E10       30.10R WCI  20
PLENTYWOOD       N/A     27  14  59 E7        30.09R WCI  19
POPLAR           N/A     27  18  69 E10       30.10S WCI  17
$$

MTZ028>42-056>058-232300-
SOUTHCENTRAL AND SOUTHEAST MONTANA

CITY           SKY/WX    TMP DP  RH WIND       PRES   REMARKS
BAKER          LGT SNOW  30  25  81 NE15      29.98S WCI  19
BILLINGS       CLOUDY    27  21  78 NE13      29.94R WCI  16
LIVINGSTON     LGT SNOW  24  20  84 E22       29.86R FOG     WCI   9
MILES CITY     CLOUDY    32  24  72 NE13      30.00R WCI  22
BIG TIMBER     CLOUDY    25  19  80 E13       29.93R WCI  13
FORSYTH          N/A     30  25  80 N8        29.98R WCI  23
$$

REGIONAL REPORTS...DAKOTAS

CITY           SKY/WX    TMP DP  RH WIND       PRES   REMARKS
WILLISTON      MOSUNNY   28  19  69 NE7       30.10S WCI  21
MINOT          SUNNY     27  15  61 N12       30.10R WCI  17
DICKINSON      CLOUDY    22  21  96 NE14      30.00S FOG     WCI   9
BEACH            N/A    N/A N/A N/A MISG        N/A
CROSBY           N/A     27  16  63 N8        30.13R WCI  18
TIOGA            N/A     25  14  63 NE8       30.09S WCI  16
WATFORD CITY   PTSUNNY   25  19  80 NE8       30.08S WCI  16
BISMARCK       CLOUDY    29  25  85 N17       30.05R WCI  17
GRAND FORKS    CLOUDY    26  12  55 N15       30.10R WCI  14
FARGO          CLOUDY    30  21  69 N17G24    30.05R WCI  18
BUFFALO SD       N/A     30  24  78 NE15      29.87S WCI  19
RAPID CITY     LGT SNOW  27  24  89 N15       29.88R VSB 3/4 WCI  15
$$

REGIONAL REPORTS...WYOMING/IDAHO/WASHINGTON

CITY           SKY/WX    TMP DP  RH WIND       PRES   REMARKS
GILLETTE       LGT SNOW  26  23  88 NE17      29.82S FOG     WCI  13
SHERIDAN       CLOUDY    29  22  75 E8        29.87S WCI  21
BUFFALO WY     SNOW      26  21  81 N14G23    29.83R VSB 1/2 WCI  14
CODY           CLOUDY    23  17  78 N17G29    29.82S WCI   9
YELLOWSTONE LA   N/A     17   7  64 VRB5      29.70R
IDAHO FALLS    LGT SNOW  26  25  96 S17       29.74R FOG     WCI  13
SALMON         CLOUDY    34  18  51 N9        29.79S WCI  26
BOISE          CLOUDY    33  25  72 NW25G31   29.90S WCI  20
SPOKANE        MOSUNNY   30  25  81 S6        30.05F WCI  24
$$

REGIONAL REPORTS...ALBERTA

CITY           SKY/WX    TMP DP  RH WIND       PRES   REMARKS
EDMONTON       PTSUNNY   27  14  59 SW7       30.02F WCI  19
CALGARY        PTSUNNY   27  18  69 SE13      29.94F WCI  16
LETHBRIDGE     PTSUNNY   28  16  59 VRB3      30.00F
MEDICINE HAT   MOSUNNY   25  16  68 SE6       30.07F WCI  18
WATERTON GATE    N/A     23  16  74 NE6         N/A  WCI  16
CARDSTON         N/A     28  16  59 SE3         N/A
MILK RIVER       N/A     27  19  74 SE3         N/A
$$

REGIONAL REPORTS...SASKATCHEWAN

CITY           SKY/WX    TMP DP  RH WIND       PRES   REMARKS
SWIFT CURRENT  CLOUDY    25  16  68 NW8       30.05R WCI  16
REGINA         FLURRIES  28  16  59 NW14      30.09R WCI  17
SASKATOON      MOSUNNY   25  12  58 NW9       30.11S WCI  15
VAL MARIE        N/A     27  16  63 NE8         N/A  WCI  18
ROCKGLEN         N/A     25  18  74 N8          N/A  WCI  16
ASSINIBOIA       N/A     27  10  50 W6          N/A  WCI  20
$$




USA.gov is the U.S. government's official web portal to all federal, state and local government web resources and services.